GPS BIIF-9 (40534 NORAD) Tracking and Keplerian Element Data

This shows tracking and keplerian element data for the satellite.

Feedback or suggestion? Click here.




ElementValue
Catalog40534
NameGPS BIIF-9
Epoch Orbit5455
Epoch Day269.44052736
Epoch Year2022
RAAN260.5093
Inclination53.6455
Eccentricity0.007102
Argument of Perigee19.8166
Mean Anonmoly340.4523
Mean Motion2.00575941
Decay Rate2.2E-07
L11 40534U 15013A 22269.44052736 .00000022 00000+0 00000+0 0 9990
L22 40534 53.6455 260.5093 0071020 19.8166 340.4523 2.00575941 54555

Live tracking and technical data element details for GPS BIIF-9 (NORAD 40534). GPS BIIF-9 can be tracked NOW for your location showing map with azimuth and elevation plus other details from your city location.

Track the satellite on the map from your city or location and see movement details for azimuth, elevation, latitude, longitude, range, height, and movement on the map or in text.







IsCatalogInMostPopularTable: catalog: 40534, numindb: 607
Update: records affected: 1



GetName: 40534 GPS BIIF-9

Hit Count: updated at: Wed, 28 Sep 2022 22:53:17 GMT